• In Hungary
  • List of Countries
  • For 7 days
  • Water Temperature
  • Satellite Maps
  • Weather Map
  • News
  • Weather Widgets
  • user-avatar
    Login

    Hourly Weather Pulau Langkawi

    Today, 14 December, Thursday

    Time Temperature Precipitation Wind Pressure Humidity
    00:00 +25°C° 0 mm 2 mps 757 mmHg 92%
    01:00 +25°C° 0 mm 2 mps 757 mmHg 93%
    02:00 +24°C° 0 mm 2 mps 757 mmHg 93%
    03:00 +24°C° 0 mm 2 mps 757 mmHg 92%
    04:00 +24°C° 0 mm 2 mps 757 mmHg 92%
    05:00 +24°C° 0 mm 2 mps 757 mmHg 91%
    06:00 +25°C° 0 mm 2 mps 757 mmHg 90%
    07:00 +25°C° 0 mm 2 mps 758 mmHg 90%
    08:00 +28°C° 0 mm 2 mps 758 mmHg 79%
    09:00 +30°C° 0 mm 1 mps 758 mmHg 69%
    10:00 +33°C° 0 mm 1 mps 758 mmHg 59%
    11:00 +34°C° 0 mm 1 mps 758 mmHg 55%
    12:00 +35°C° 0 mm 1 mps 757 mmHg 51%
    13:00 +36°C° 0 mm 1 mps 757 mmHg 47%
    14:00 +36°C° 0 mm 2 mps 757 mmHg 53%
    15:00 +35°C° 0 mm 2 mps 756 mmHg 58%
    16:00 +33°C° 0 mm 3 mps 755 mmHg 64%
    17:00 +31°C° 0 mm 3 mps 756 mmHg 72%
    18:00 +29°C° 0 mm 3 mps 756 mmHg 81%
    19:00 +27°C° 0 mm 2 mps 756 mmHg 89%
    20:00 +27°C° 0 mm 2 mps 757 mmHg 91%
    21:00 +26°C° 0 mm 2 mps 757 mmHg 93%
    22:00 +26°C° 0 mm 2 mps 758 mmHg 95%
    23:00 +26°C° 0.1 mm 2 mps 758 mmHg 95%

    Tomorrow, 15 December, Friday

    Time Temperature Precipitation Wind Pressure Humidity
    00:00 +26°C° 0.1 mm 2 mps 758 mmHg 96%
    01:00 +25°C° 0.1 mm 2 mps 758 mmHg 96%
    02:00 +25°C° 0 mm 2 mps 758 mmHg 96%
    03:00 +25°C° 0 mm 2 mps 757 mmHg 96%
    04:00 +25°C° 0 mm 2 mps 756 mmHg 95%
    05:00 +25°C° 0 mm 2 mps 757 mmHg 95%
    06:00 +25°C° 0 mm 2 mps 757 mmHg 94%
    07:00 +25°C° 0 mm 2 mps 757 mmHg 93%
    08:00 +28°C° 0 mm 2 mps 757 mmHg 83%
    09:00 +30°C° 0 mm 2 mps 758 mmHg 73%
    10:00 +34°C° 0 mm 2 mps 758 mmHg 62%
    11:00 +34°C° 0 mm 2 mps 758 mmHg 60%
    12:00 +35°C° 0 mm 2 mps 757 mmHg 58%
    13:00 +34°C° 0 mm 1 mps 757 mmHg 55%
    14:00 +35°C° 0 mm 2 mps 756 mmHg 60%
    15:00 +34°C° 0 mm 2 mps 756 mmHg 64%
    16:00 +33°C° 0 mm 3 mps 755 mmHg 69%
    17:00 +31°C° 0 mm 3 mps 755 mmHg 75%
    18:00 +29°C° 0 mm 3 mps 756 mmHg 82%
    19:00 +27°C° 0 mm 3 mps 756 mmHg 89%
    20:00 +27°C° 0 mm 3 mps 757 mmHg 90%
    21:00 +26°C° 0 mm 3 mps 758 mmHg 91%
    22:00 +26°C° 0 mm 3 mps 758 mmHg 92%
    23:00 +26°C° 0 mm 3 mps 758 mmHg 93%

    Day after tomorrow, 16 December, Saturday

    Time Temperature Precipitation Wind Pressure Humidity
    00:00 +25°C° 0 mm 3 mps 758 mmHg 93%
    01:00 +25°C° 0 mm 3 mps 758 mmHg 94%
    02:00 +25°C° 0 mm 3 mps 757 mmHg 94%
    03:00 +25°C° 0 mm 3 mps 757 mmHg 94%
    04:00 +25°C° 0 mm 3 mps 756 mmHg 95%
    05:00 +25°C° 0 mm 3 mps 757 mmHg 94%
    06:00 +25°C° 0 mm 3 mps 757 mmHg 94%
    07:00 +25°C° 0 mm 4 mps 757 mmHg 93%
    08:00 +28°C° 0 mm 4 mps 758 mmHg 84%
    09:00 +30°C° 0 mm 4 mps 758 mmHg 75%
    10:00 +33°C° 0 mm 4 mps 759 mmHg 66%
    11:00 +33°C° 0 mm 3 mps 758 mmHg 62%
    12:00 +34°C° 0 mm 3 mps 758 mmHg 59%
    13:00 +35°C° 0 mm 2 mps 757 mmHg 56%
    14:00 +34°C° 0 mm 2 mps 756 mmHg 58%
    15:00 +34°C° 0 mm 3 mps 756 mmHg 60%
    16:00 +33°C° 0 mm 3 mps 755 mmHg 62%
    17:00 +32°C° 0 mm 4 mps 756 mmHg 69%
    18:00 +29°C° 0 mm 4 mps 756 mmHg 77%
    19:00 +27°C° 0 mm 5 mps 757 mmHg 84%
    20:00 +27°C° 0 mm 6 mps 757 mmHg 86%
    21:00 +27°C° 0 mm 6 mps 758 mmHg 88%
    22:00 +26°C° 0 mm 6 mps 759 mmHg 89%
    23:00 +26°C° 0 mm 6 mps 759 mmHg 91%

    17 December, Sunday

    Time Temperature Precipitation Wind Pressure Humidity
    00:00 +26°C° 0 mm 6 mps 758 mmHg 92%
    01:00 +26°C° 0 mm 6 mps 758 mmHg 94%
    02:00 +24°C° 0 mm 6 mps 758 mmHg 94%
    03:00 +24°C° 0 mm 6 mps 757 mmHg 95%
    04:00 +24°C° 0 mm 7 mps 757 mmHg 95%
    05:00 +24°C° 0 mm 7 mps 757 mmHg 95%
    06:00 +24°C° 0 mm 7 mps 758 mmHg 94%
    07:00 +24°C° 0 mm 7 mps 758 mmHg 94%
    08:00 +27°C° 0 mm 7 mps 758 mmHg 85%
    09:00 +29°C° 0 mm 7 mps 759 mmHg 76%
    10:00 +32°C° 0 mm 7 mps 759 mmHg 67%
    11:00 +32°C° 0.1 mm 6 mps 759 mmHg 70%
    12:00 +32°C° 0.1 mm 5 mps 758 mmHg 74%
    13:00 +32°C° 0.1 mm 4 mps 758 mmHg 77%
    14:00 +30°C° 0.9 mm 5 mps 757 mmHg 80%
    15:00 +29°C° 0.9 mm 5 mps 757 mmHg 82%
    16:00 +29°C° 0.9 mm 5 mps 756 mmHg 84%
    17:00 +28°C° 1.2 mm 6 mps 757 mmHg 87%
    18:00 +27°C° 1.2 mm 7 mps 757 mmHg 91%
    19:00 +26°C° 1.2 mm 8 mps 758 mmHg 94%
    20:00 +24°C° 0.2 mm 8 mps 758 mmHg 94%
    21:00 +24°C° 0.2 mm 8 mps 759 mmHg 93%
    22:00 +24°C° 0.2 mm 8 mps 759 mmHg 93%
    23:00 +24°C° 0 mm 8 mps 759 mmHg 92%

    18 December, Monday

    Time Temperature Precipitation Wind Pressure Humidity
    00:00 +24°C° 0 mm 8 mps 759 mmHg 92%
    01:00 +24°C° 0 mm 8 mps 758 mmHg 91%
    02:00 +24°C° 0 mm 8 mps 758 mmHg 91%
    03:00 +24°C° 0 mm 8 mps 758 mmHg 90%
    04:00 +24°C° 0 mm 9 mps 757 mmHg 89%
    05:00 +24°C° 0 mm 8 mps 758 mmHg 89%
    06:00 +24°C° 0 mm 8 mps 758 mmHg 89%
    07:00 +24°C° 0 mm 7 mps 758 mmHg 89%
    08:00 +27°C° 0 mm 7 mps 759 mmHg 81%
    09:00 +29°C° 0 mm 7 mps 759 mmHg 73%
    10:00 +32°C° 0 mm 7 mps 760 mmHg 66%
    11:00 +32°C° 0 mm 6 mps 759 mmHg 63%
    12:00 +33°C° 0 mm 6 mps 759 mmHg 60%
    13:00 +33°C° 0 mm 6 mps 758 mmHg 57%
    14:00 +33°C° 0 mm 6 mps 757 mmHg 59%
    15:00 +32°C° 0 mm 6 mps 757 mmHg 62%
    16:00 +32°C° 0 mm 6 mps 756 mmHg 64%
    17:00 +29°C° 0 mm 7 mps 757 mmHg 70%
    18:00 +28°C° 0 mm 8 mps 757 mmHg 77%
    19:00 +26°C° 0 mm 8 mps 757 mmHg 83%
    20:00 +26°C° 0 mm 8 mps 758 mmHg 85%
    21:00 +26°C° 0 mm 8 mps 758 mmHg 87%
    22:00 +26°C° 0 mm 7 mps 759 mmHg 90%
    23:00 +26°C° 0 mm 7 mps 759 mmHg 91%

    19 December, Tuesday

    Time Temperature Precipitation Wind Pressure Humidity
    00:00 +24°C° 0 mm 8 mps 758 mmHg 91%
    01:00 +24°C° 0 mm 8 mps 758 mmHg 92%
    02:00 +24°C° 0 mm 8 mps 758 mmHg 92%
    03:00 +24°C° 0 mm 8 mps 757 mmHg 92%
    04:00 +24°C° 0 mm 8 mps 757 mmHg 93%
    05:00 +24°C° 0 mm 7 mps 757 mmHg 93%
    06:00 +24°C° 0 mm 7 mps 758 mmHg 94%
    07:00 +24°C° 0 mm 7 mps 758 mmHg 94%
    08:00 +27°C° 0 mm 7 mps 759 mmHg 84%
    09:00 +29°C° 0 mm 7 mps 759 mmHg 74%
    10:00 +32°C° 0 mm 6 mps 759 mmHg 64%
    11:00 +32°C° 0 mm 6 mps 759 mmHg 63%
    12:00 +33°C° 0 mm 6 mps 758 mmHg 61%
    13:00 +33°C° 0 mm 5 mps 757 mmHg 59%
    14:00 +32°C° 0 mm 5 mps 757 mmHg 62%
    15:00 +32°C° 0 mm 6 mps 756 mmHg 64%
    16:00 +30°C° 0 mm 6 mps 756 mmHg 67%
    17:00 +29°C° 0 mm 7 mps 756 mmHg 72%
    18:00 +28°C° 0 mm 8 mps 757 mmHg 77%
    19:00 +27°C° 0 mm 8 mps 757 mmHg 83%
    20:00 +26°C° 0 mm 8 mps 758 mmHg 84%
    21:00 +26°C° 0 mm 8 mps 758 mmHg 85%
    22:00 +26°C° 0 mm 8 mps 759 mmHg 86%
    23:00 +26°C° 0 mm 8 mps 758 mmHg 86%
    Show more